[[{"header":{"parameterUnit":"m.s-1","parameterCategory":2,"la1":30.2991,"la2":30.254,"lo1":-89.0895,"lo2":-89.0444,"dx":0.0017,"dy":0.0017,"nx":28,"ny":28,"refTime":"2022-12-07T03:00:00:Z","depth":"0","parameterNumber":2,"parameterNumberName":"U-component_of_CURRENTS"},"data":[0,0,0,0,0,0,0,0,0,0,0,0,0,0,0,0,0,0,0,0,0,0,0,0,0,0,0,0,0,0,0,0,0,0,0,0,0,0,0,0,0,0,0,0,0,0,0,0,0,0,0,0,0,0,0,0,0,0,-0.4296,-0.4296,0,-0.4409,-0.441,-0.4412,-0.4419,-0.4417,-0.4416,-0.4414,-0.4216,-0.4212,-0.4209,0,0,0,0,0,0,0,0,0,0,0,0,0,-0.412,-0.4124,-0.4295,-0.4296,-0.4297,-0.4408,-0.441,-0.4412,-0.4419,-0.4417,-0.4415,-0.4413,-0.4217,-0.4213,-0.4208,0,0,0,0,0,0,0,0,0,0,0,0,0,-0.4216,-0.4125,-0.4295,-0.4311,-0.4313,-0.4408,-0.4411,-0.4413,-0.442,-0.4417,-0.4415,-0.4412,-0.4218,-0.4213,-0.4208,-0.4226,0,0,-0.4191,-0.4189,0,0,0,0,0,0,0,0,-0.421,-0.4223,-0.4307,-0.431,-0.4312,-0.4393,-0.4276,-0.4333,-0.442,-0.4384,-0.4414,-0.4411,-0.4245,-0.4237,-0.4276,-0.4216,-0.4208,-0.419,-0.4187,-0.4185,-0.4183,0,0,0,0,0,0,0,-0.4204,-0.4218,-0.4345,-0.4309,-0.4312,-0.4324,-0.4335,-0.4289,-0.4325,-0.4387,-0.4387,-0.4393,-0.4244,-0.4281,-0.427,-0.4205,-0.4191,-0.4186,-0.4182,-0.418,-0.4151,-0.4154,0,0,0,0,0,0,-0.4182,-0.4212,-0.4341,-0.4348,-0.4248,-0.4328,-0.4341,-0.4374,-0.4333,-0.4326,-0.4395,-0.4392,-0.4292,-0.4276,-0.4262,-0.4168,-0.4185,-0.418,-0.4176,-0.4149,-0.4152,-0.4155,0,0,0,0,0,0,-0.4178,-0.4194,-0.4337,-0.4277,-0.4295,-0.4333,-0.4371,-0.4377,-0.4389,-0.4341,-0.4328,-0.4395,-0.4289,-0.427,-0.4253,-0.4163,-0.4177,-0.4172,-0.4146,-0.415,-0.4153,-0.4049,0,0,0,0,0,0,-0.4174,-0.4193,-0.42,-0.4276,-0.4297,-0.4363,-0.4373,-0.4381,-0.4396,-0.4393,-0.4337,-0.4319,-0.4286,-0.4262,-0.4247,-0.4156,-0.4168,-0.4143,-0.4148,-0.4152,-0.4049,-0.4049,-0.4048,0,0,0,0,0,-0.4167,-0.4188,-0.4201,-0.4215,-0.4311,-0.4362,-0.4374,-0.4395,-0.4397,-0.4398,-0.4405,-0.432,-0.428,-0.4261,-0.4243,-0.4146,-0.414,-0.4146,-0.4152,-0.4049,-0.4049,-0.4048,0,0,0,0,0,0,-0.4097,-0.4194,-0.4208,-0.4251,-0.4286,-0.436,-0.4368,-0.4389,-0.4406,-0.4399,-0.4358,-0.4342,-0.4296,-0.4278,-0.4258,-0.4173,-0.4192,-0.4195,-0.4121,-0.412,-0.4119,-0.398,-0.4163,0,0,0,0,0,-0.4092,-0.4135,-0.421,-0.423,-0.4258,-0.4313,-0.4334,-0.4355,-0.4384,-0.439,-0.4359,-0.434,-0.4317,-0.4264,-0.4261,-0.4198,-0.4136,-0.4137,-0.4137,-0.4135,-0.4023,-0.3933,-0.3909,-0.4173,-0.4173,-0.4173,0,0,-0.4059,-0.412,-0.4136,-0.4217,-0.4256,-0.4246,-0.432,-0.4352,-0.4314,-0.4358,-0.4305,-0.4341,-0.4321,-0.4274,-0.4244,-0.4224,-0.405,-0.4143,-0.4139,-0.4026,-0.3935,-0.3908,-0.3883,-0.4177,-0.4176,-0.4176,0,0,-0.3974,-0.4083,-0.406,-0.4102,-0.4157,-0.4207,-0.4206,-0.4277,-0.4283,-0.4281,-0.4303,-0.428,-0.4262,-0.42,-0.4172,-0.4164,-0.408,-0.4197,-0.4014,-0.3931,-0.3904,-0.3879,-0.3826,-0.3796,-0.4157,-0.4156,-0.4156,0,-0.3917,-0.3905,-0.4053,-0.4031,-0.4028,-0.417,-0.4104,-0.4157,-0.42,-0.4168,-0.424,-0.4196,-0.4191,-0.4053,-0.407,-0.413,-0.4106,-0.4001,-0.3914,-0.3888,-0.3864,-0.3815,-0.3784,-0.4152,-0.4153,-0.4153,-0.4154,0,-0.3783,-0.3781,-0.3782,-0.3797,-0.383,-0.3821,-0.3906,-0.3927,-0.3978,-0.3995,-0.3939,-0.3991,-0.3928,-0.3958,-0.3995,-0.3828,-0.388,-0.3947,-0.3879,-0.3828,-0.3785,-0.3754,-0.4146,-0.4148,-0.4149,-0.415,0,0,-0.3586,-0.3666,-0.3645,-0.3629,-0.3704,-0.3727,-0.3689,-0.3671,-0.3637,-0.3685,-0.359,-0.3578,-0.3627,-0.36,-0.3659,-0.3573,-0.344,-0.367,-0.3669,-0.3548,-0.3273,-0.3175,-0.3133,-0.3503,-0.3496,-0.349,-0.3329,0,-0.3393,-0.3325,-0.3393,-0.3302,-0.3282,-0.34,-0.3367,-0.3391,-0.3445,-0.343,-0.3437,-0.3425,-0.349,-0.3503,-0.3407,-0.3489,-0.3345,-0.3476,-0.3394,-0.3389,-0.3249,-0.3087,-0.2993,-0.2826,-0.3299,-0.3294,-0.329,0,-0.3166,-0.3174,-0.3059,-0.3096,-0.3093,-0.3065,-0.3064,-0.3058,-0.3082,-0.3126,-0.3074,-0.3163,-0.3064,-0.3177,-0.3055,-0.3157,-0.3134,-0.3164,-0.3161,-0.3041,-0.3226,-0.295,-0.2752,-0.2759,-0.3242,-0.3246,-0.3249,0,-0.2952,-0.2917,-0.2832,-0.2841,-0.2911,-0.2863,-0.2892,-0.2928,-0.2949,-0.294,-0.2979,-0.2886,-0.2921,-0.2839,-0.2903,-0.2986,-0.279,-0.2934,-0.277,-0.277,-0.2639,-0.2634,-0.2347,-0.2699,-0.2699,-0.27,-0.27,0,-0.2723,-0.2656,-0.2742,-0.2715,-0.2642,-0.2727,-0.2666,-0.2701,-0.2749,-0.2757,-0.2817,-0.28,-0.2843,-0.2796,-0.2793,-0.2664,-0.2679,-0.2622,-0.266,-0.2618,-0.2613,-0.2578,-0.2658,-0.2694,-0.2695,-0.2696,-0.2697,0,-0.2515,-0.2552,-0.2496,-0.2542,-0.2553,-0.2518,-0.26,-0.2597,-0.2653,-0.2669,-0.2676,-0.2734,-0.2656,-0.2649,-0.2566,-0.2543,-0.2384,-0.2359,-0.2314,-0.2341,-0.2208,-0.229,-0.1986,-0.1925,-0.2143,-0.2139,-0.2135,0,-0.2411,-0.2358,-0.2396,-0.2395,-0.2415,-0.241,-0.2436,-0.2524,-0.2566,-0.2614,-0.2627,-0.2567,-0.2484,-0.2317,-0.223,-0.2083,-0.2152,-0.1943,-0.2015,-0.2047,-0.2171,-0.2257,-0.2238,-0.1862,-0.1857,-0.1852,-0.1849,0,-0.2233,-0.2251,-0.2242,-0.2254,-0.2268,-0.2303,-0.2356,-0.2364,-0.2469,-0.2436,-0.2365,-0.2277,-0.2166,-0.1976,-0.184,-0.1764,-0.1913,-0.1841,-0.1864,-0.1829,-0.1907,-0.1924,-0.2182,-0.1808,-0.1812,-0.1815,-0.1817,-0.1819,-0.2115,-0.2084,-0.2093,-0.2092,-0.2133,-0.2164,-0.2065,-0.2118,-0.2057,-0.1894,-0.2031,-0.1754,-0.1839,-0.1606,-0.1525,-0.143,-0.154,-0.1444,-0.152,-0.1588,-0.1531,-0.1673,-0.1359,-0.136,-0.1362,-0.1363,-0.1364,0,-0.1951,-0.1946,-0.1947,-0.1931,-0.1919,-0.1992,-0.1985,-0.1826,-0.1588,-0.1462,-0.1277,-0.1218,-0.1171,-0.1224,-0.1252,-0.1184,-0.1194,-0.1176,-0.1293,-0.1272,-0.136,-0.1349,-0.1028,-0.1028,-0.1028,-0.1028,-0.1028,-0.1028,-0.1859,-0.1795,-0.1806,-0.1717,-0.17,-0.1541,-0.1446,-0.1214,-0.104,-0.0639,-0.0426,-0.0398,-0.0784,-0.1168,-0.1203,-0.1135,-0.1161,-0.1095,-0.1146,-0.1277,-0.1311,-0.1343,-0.1344,-0.1027,-0.1028,-0.1004,-0.1004,-0.1004]},{"header":{"parameterUnit":"m.s-1","parameterCategory":2,"la1":30.2991,"la2":30.254,"lo1":-89.0895,"lo2":-89.0444,"dx":0.0017,"dy":0.0017,"nx":28,"ny":28,"refTime":"2022-12-07T03:00:00:Z","depth":"0","parameterNumber":3,"parameterNumberName":"V-component_of_CURRENTS"},"data":[0,0,0,0,0,0,0,0,0,0,0,0,0,0,0,0,0,0,0,0,0,0,0,0,0,0,0,0,0,0,0,0,0,0,0,0,0,0,0,0,0,0,0,0,0,0,0,0,0,0,0,0,0,0,0,0,0,0,-0.0013,-0.0011,0,0.0306,0.0311,0.0315,0.0572,0.0574,0.0575,0.0577,0.0924,0.0932,0.0939,0,0,0,0,0,0,0,0,0,0,0,0,0,-0.023,-0.0227,-0.0014,-0.0011,-0.0008,0.0305,0.0311,0.0316,0.0572,0.0574,0.0576,0.0577,0.0921,0.0931,0.094,0,0,0,0,0,0,0,0,0,0,0,0,0,-0.0034,-0.0226,-0.0014,0.0148,0.0165,0.0304,0.0311,0.0318,0.0572,0.0574,0.0576,0.0578,0.0918,0.093,0.0941,0.0971,0,0,0.0977,0.0983,0,0,0,0,0,0,0,0,-0.0046,-0.0025,0.0121,0.0137,0.0156,0.039,0.0362,0.0533,0.0571,0.0431,0.0577,0.0579,0.0738,0.0765,0.0838,0.0987,0.1002,0.0979,0.0986,0.0991,0.0994,0,0,0,0,0,0,0,-0.006,-0.0037,0.0126,0.0124,0.0145,0.0263,0.0293,0.0397,0.0578,0.0443,0.0459,0.0474,0.075,0.0826,0.0848,0.1007,0.0978,0.0989,0.0996,0.1001,0.1173,0.1171,0,0,0,0,0,0,-0.0136,-0.0051,0.0115,0.0134,0.0044,0.0263,0.0298,0.0323,0.0577,0.0614,0.0472,0.0484,0.0805,0.0834,0.0861,0.0876,0.0991,0.1002,0.1009,0.1176,0.1173,0.117,0,0,0,0,0,0,-0.0142,-0.0124,0.0102,0.0039,0.0074,0.0262,0.0291,0.0328,0.0398,0.0596,0.0637,0.05,0.0807,0.0844,0.0938,0.0893,0.1007,0.1018,0.1179,0.1175,0.1171,0.0928,0,0,0,0,0,0,-0.0149,-0.0128,-0.0135,0.0033,0.0074,0.0152,0.0288,0.0332,0.0398,0.0418,0.0633,0.067,0.0812,0.0919,0.095,0.0911,0.1027,0.1182,0.1177,0.1173,0.0939,0.0916,0.0897,0,0,0,0,0,-0.0158,-0.0178,-0.0137,-0.0117,0.0058,0.0148,0.0181,0.0332,0.0395,0.0408,0.0555,0.0663,0.0911,0.0927,0.0964,0.0927,0.1184,0.1178,0.1173,0.0949,0.0921,0.0897,0,0,0,0,0,0,-0.0268,-0.015,-0.0101,-0.0082,0.0002,0.0186,0.021,0.03,0.0431,0.0452,0.0646,0.0691,0.0756,0.0863,0.0876,0.0959,0.1058,0.1059,0.0875,0.0851,0.083,0.0818,0.1037,0,0,0,0,0,-0.0309,-0.0294,-0.0168,-0.0161,-0.0128,0.0029,0.0083,0.0176,0.0307,0.0371,0.0508,0.0647,0.0761,0.0821,0.0938,0.0982,0.1077,0.0976,0.0954,0.0936,0.0948,0.0997,0.0981,0.1152,0.1152,0.1152,0,0,-0.0355,-0.0289,-0.0281,-0.0186,-0.0099,-0.0064,0.0072,0.0128,0.0166,0.038,0.0459,0.058,0.0755,0.0818,0.0853,0.0903,0.0938,0.0929,0.0912,0.0936,0.0989,0.0973,0.0958,0.1148,0.1148,0.1149,0,0,-0.0442,-0.0383,-0.0399,-0.0343,-0.0252,-0.0154,-0.0161,-0.0012,0.0064,0.0138,0.0299,0.0384,0.0553,0.0672,0.0755,0.0678,0.0823,0.0698,0.059,0.0634,0.062,0.061,0.071,0.071,0.0687,0.0686,0.0686,0,-0.0505,-0.0485,-0.0395,-0.0393,-0.0351,-0.0216,-0.0213,-0.013,0.0025,0.0075,0.0122,0.0354,0.0488,0.0587,0.0573,0.0632,0.0699,0.0671,0.0605,0.0596,0.059,0.0695,0.0699,0.0674,0.0675,0.0677,0.0678,0,-0.0587,-0.0573,-0.0582,-0.0528,-0.0486,-0.0463,-0.0354,-0.0312,-0.0224,-0.0124,-0.0034,0.0134,0.0281,0.0309,0.0436,0.0452,0.053,0.0567,0.0664,0.0557,0.0676,0.0684,0.0656,0.0661,0.0664,0.0667,0,0,-0.0696,-0.0647,-0.0647,-0.0629,-0.0544,-0.0507,-0.049,-0.0399,-0.0359,-0.0268,-0.0205,-0.0056,0.0032,0.0132,0.0263,0.0304,0.0319,0.0404,0.0412,0.0496,0.0452,0.0506,0.0523,0.0329,0.0329,0.0329,0.0554,0,-0.077,-0.0793,-0.0744,-0.0752,-0.0737,-0.0637,-0.0615,-0.0534,-0.0439,-0.0358,-0.023,-0.0118,-0.0036,0.0039,0.0076,0.0297,0.0329,0.0259,0.0553,0.0563,0.0616,0.0528,0.0558,0.0759,0.0563,0.0564,0.0565,0,-0.0839,-0.0837,-0.0864,-0.0815,-0.0801,-0.0797,-0.0712,-0.0675,-0.0554,-0.0482,-0.0399,-0.0264,-0.0139,-0.0084,0.015,0.01,0.0246,0.0376,0.0388,0.0537,0.0631,0.0836,0.0783,0.0927,0.058,0.0578,0.0577,0,-0.0905,-0.0903,-0.0918,-0.0905,-0.0851,-0.0848,-0.0812,-0.0715,-0.0661,-0.0552,-0.0484,-0.0354,-0.0213,-0.009,0.0206,0.0171,0.047,0.0461,0.0635,0.0645,0.0783,0.0803,0.0901,0.0564,0.0564,0.0563,0.0563,0,-0.0959,-0.0968,-0.0953,-0.0959,-0.0972,-0.0914,-0.0902,-0.0845,-0.0749,-0.0636,-0.0548,-0.04,-0.0211,0.0007,0.0183,0.047,0.0452,0.062,0.0689,0.0699,0.0708,0.0935,0.0989,0.0572,0.057,0.0568,0.0567,0,-0.1011,-0.1,-0.1019,-0.1004,-0.1001,-0.101,-0.0964,-0.0938,-0.084,-0.069,-0.0646,-0.0404,-0.0121,0.0082,0.0389,0.0504,0.0838,0.0831,0.0862,0.0926,0.1137,0.1176,0.1393,0.1506,0.1009,0.1011,0.1013,0,-0.1031,-0.1049,-0.107,-0.109,-0.1087,-0.1091,-0.1081,-0.0999,-0.092,-0.0629,-0.0525,-0.0245,0.0029,0.0448,0.0664,0.0923,0.1018,0.11,0.0999,0.1151,0.1247,0.1264,0.1344,0.111,0.1113,0.1115,0.1117,0,-0.1071,-0.1085,-0.1106,-0.1157,-0.1169,-0.1149,-0.1093,-0.0993,-0.0798,-0.0598,-0.0193,0.0039,0.0369,0.0694,0.0935,0.1078,0.1189,0.1149,0.1293,0.1313,0.1357,0.15,0.1003,0.1136,0.1134,0.1133,0.1131,0.1131,-0.1096,-0.1131,-0.1168,-0.1209,-0.1217,-0.1102,-0.0966,-0.0809,-0.0538,-0.0068,0.0132,0.0576,0.0753,0.1086,0.1254,0.1459,0.139,0.1504,0.1542,0.1551,0.1624,0.1181,0.1381,0.1381,0.138,0.138,0.138,0,-0.1113,-0.1154,-0.1211,-0.1189,-0.1141,-0.1138,-0.0903,-0.0667,-0.0209,0.0186,0.0628,0.1141,0.1359,0.1485,0.1671,0.1843,0.1881,0.1912,0.194,0.2006,0.1619,0.1584,0.1852,0.1852,0.1852,0.1852,0.1852,0.1851,-0.112,-0.1178,-0.1214,-0.112,-0.1053,-0.0817,-0.0596,-0.0235,0.0108,0.0829,0.1267,0.1579,0.1686,0.195,0.2159,0.2196,0.2381,0.2337,0.2454,0.2167,0.2131,0.2097,0.2076,0.2443,0.2443,0.2834,0.2838,0.284]}],[{"header":{"parameterUnit":"m.s-1","parameterCategory":2,"la1":30.2991,"la2":30.254,"lo1":-89.0895,"lo2":-89.0444,"dx":0.0017,"dy":0.0017,"nx":28,"ny":28,"refTime":"2022-12-07T03:00:00:Z","depth":"2","parameterNumber":2,"parameterNumberName":"U-component_of_CURRENTS"},"data":[0,0,0,0,0,0,0,0,0,0,0,0,0,0,0,0,0,0,0,0,0,0,0,0,0,0,0,0,0,0,0,0,0,0,0,0,0,0,0,0,0,0,0,0,0,0,0,0,0,0,0,0,0,0,0,0,0,0,-0.2927,-0.2929,0,-0.3066,-0.3067,-0.3069,-0.3085,-0.3084,-0.3083,-0.3082,-0.31,-0.3102,-0.3103,0,0,0,0,0,0,0,0,0,0,0,0,0,-0.2755,-0.2757,-0.2927,-0.2929,-0.2931,-0.3066,-0.3067,-0.3069,-0.3085,-0.3084,-0.3083,-0.3081,-0.31,-0.3102,-0.3104,0,0,0,0,0,0,0,0,0,0,0,0,0,-0.2852,-0.2758,-0.2927,-0.2958,-0.2962,-0.3065,-0.3067,-0.307,-0.3086,-0.3084,-0.3082,-0.3081,-0.3099,-0.3102,-0.3104,-0.3152,0,0,-0.3111,-0.3112,0,0,0,0,0,0,0,0,-0.2847,-0.2858,-0.2951,-0.2956,-0.2961,-0.3059,-0.3014,-0.3092,-0.3086,-0.3036,-0.3082,-0.308,-0.3078,-0.3082,-0.311,-0.3153,-0.3153,-0.3111,-0.3112,-0.3113,-0.3114,0,0,0,0,0,0,0,-0.284,-0.2853,-0.298,-0.2953,-0.2959,-0.2991,-0.3002,-0.3029,-0.3061,-0.304,-0.3042,-0.3063,-0.3079,-0.3108,-0.311,-0.3154,-0.3111,-0.3113,-0.3114,-0.3115,-0.3244,-0.3246,0,0,0,0,0,0,-0.2826,-0.2846,-0.2975,-0.2984,-0.2901,-0.2996,-0.3008,-0.3027,-0.3063,-0.3069,-0.3064,-0.3063,-0.3105,-0.3108,-0.3111,-0.3119,-0.3113,-0.3116,-0.3117,-0.3242,-0.3244,-0.3247,0,0,0,0,0,0,-0.2822,-0.2836,-0.297,-0.292,-0.294,-0.3,-0.3022,-0.3031,-0.3049,-0.3083,-0.3085,-0.3072,-0.3104,-0.3108,-0.315,-0.3121,-0.3117,-0.3119,-0.324,-0.3243,-0.3246,-0.3167,0,0,0,0,0,0,-0.2816,-0.2834,-0.2839,-0.2919,-0.2942,-0.3011,-0.3024,-0.3035,-0.3066,-0.3066,-0.3091,-0.3092,-0.3103,-0.3147,-0.3152,-0.3124,-0.3121,-0.3237,-0.3241,-0.3245,-0.3167,-0.3167,-0.3167,0,0,0,0,0,-0.281,-0.2824,-0.2839,-0.2854,-0.2949,-0.3011,-0.3025,-0.3061,-0.3068,-0.3072,-0.3113,-0.3091,-0.3174,-0.3151,-0.3157,-0.3128,-0.3235,-0.324,-0.3244,-0.3167,-0.3167,-0.3167,0,0,0,0,0,0,-0.2753,-0.283,-0.2847,-0.2883,-0.2933,-0.3014,-0.3033,-0.306,-0.31,-0.3101,-0.3123,-0.3129,-0.3155,-0.3176,-0.315,-0.3187,-0.3198,-0.3204,-0.3138,-0.3138,-0.3138,-0.3031,-0.3122,0,0,0,0,0,-0.2745,-0.2773,-0.2847,-0.2875,-0.29,-0.2966,-0.2997,-0.3024,-0.3076,-0.3091,-0.3132,-0.3168,-0.3185,-0.3187,-0.3226,-0.3245,-0.3213,-0.3236,-0.3236,-0.3235,-0.316,-0.3138,-0.3125,-0.3262,-0.3262,-0.3261,0,0,-0.2736,-0.2779,-0.2797,-0.2864,-0.291,-0.2937,-0.2979,-0.3025,-0.303,-0.3087,-0.3126,-0.3176,-0.3199,-0.3222,-0.3233,-0.3226,-0.319,-0.3241,-0.3239,-0.3162,-0.314,-0.3126,-0.3113,-0.3265,-0.3264,-0.3264,0,0,-0.2724,-0.2766,-0.278,-0.2816,-0.2881,-0.2921,-0.2928,-0.3019,-0.3034,-0.31,-0.3125,-0.3133,-0.3233,-0.319,-0.3187,-0.3207,-0.3202,-0.3272,-0.3157,-0.314,-0.3125,-0.3112,-0.307,-0.3054,-0.3255,-0.3255,-0.3255,0,-0.2702,-0.273,-0.2793,-0.2811,-0.2832,-0.2904,-0.2913,-0.2943,-0.3038,-0.3045,-0.3104,-0.3182,-0.3181,-0.3125,-0.3123,-0.3184,-0.3203,-0.3145,-0.3129,-0.3115,-0.3103,-0.3063,-0.3046,-0.3252,-0.3252,-0.3253,-0.3253,0,-0.2698,-0.2715,-0.2729,-0.2765,-0.2797,-0.2821,-0.2871,-0.2907,-0.2965,-0.3003,-0.3025,-0.3059,-0.308,-0.3097,-0.3101,-0.3021,-0.3073,-0.3138,-0.3103,-0.3082,-0.3046,-0.3028,-0.3247,-0.3249,-0.325,-0.325,0,0,-0.2643,-0.271,-0.2707,-0.2711,-0.2771,-0.2795,-0.2802,-0.2823,-0.2822,-0.2906,-0.2901,-0.2889,-0.2923,-0.2916,-0.2937,-0.2887,-0.2798,-0.2967,-0.2968,-0.2876,-0.2768,-0.2676,-0.2649,-0.2902,-0.2899,-0.2896,-0.2781,0,-0.2608,-0.2618,-0.2663,-0.2661,-0.2667,-0.2724,-0.2727,-0.2753,-0.2805,-0.2834,-0.2817,-0.2843,-0.2852,-0.2873,-0.2813,-0.2834,-0.2751,-0.2821,-0.2841,-0.2839,-0.2719,-0.2624,-0.2462,-0.2335,-0.2764,-0.2761,-0.2759,0,-0.2559,-0.2579,-0.2567,-0.2602,-0.2611,-0.2618,-0.2633,-0.2651,-0.2675,-0.2723,-0.2722,-0.2771,-0.2675,-0.2729,-0.2635,-0.2714,-0.2687,-0.2688,-0.2687,-0.259,-0.2712,-0.2429,-0.2288,-0.2731,-0.2733,-0.2735,-0.2737,0,-0.2459,-0.2496,-0.2479,-0.249,-0.2548,-0.2543,-0.2572,-0.2607,-0.2622,-0.2642,-0.268,-0.2638,-0.2629,-0.2598,-0.2568,-0.2631,-0.2494,-0.2596,-0.2459,-0.2455,-0.2296,-0.2282,-0.2465,-0.2465,-0.2465,-0.2466,-0.2466,0,-0.2376,-0.2362,-0.2431,-0.242,-0.2411,-0.2474,-0.2467,-0.2502,-0.2546,-0.2541,-0.2602,-0.2582,-0.2606,-0.2562,-0.2537,-0.2416,-0.246,-0.2356,-0.2388,-0.2272,-0.2258,-0.2597,-0.2614,-0.2461,-0.2462,-0.2463,-0.2464,0,-0.2251,-0.2294,-0.2286,-0.2343,-0.2358,-0.2349,-0.2417,-0.2424,-0.2479,-0.2476,-0.2483,-0.2525,-0.2456,-0.2447,-0.2384,-0.2351,-0.2272,-0.2211,-0.2051,-0.2062,-0.2255,-0.2271,-0.2043,-0.2038,-0.2034,-0.203,-0.2027,0,-0.2183,-0.2166,-0.2217,-0.2219,-0.2241,-0.2258,-0.2279,-0.2364,-0.238,-0.2416,-0.2401,-0.2365,-0.2292,-0.217,-0.2084,-0.1976,-0.21,-0.1796,-0.1827,-0.2141,-0.2197,-0.222,-0.224,-0.1609,-0.1603,-0.1598,-0.1594,0,-0.2059,-0.208,-0.2084,-0.2096,-0.2112,-0.2133,-0.2167,-0.2174,-0.2252,-0.2258,-0.2219,-0.2165,-0.2032,-0.1843,-0.1722,-0.1657,-0.1811,-0.169,-0.2033,-0.1749,-0.1725,-0.1785,-0.182,-0.155,-0.1554,-0.1558,-0.156,-0.1562,-0.1962,-0.1944,-0.1956,-0.1951,-0.1978,-0.1972,-0.1926,-0.1977,-0.1964,-0.1916,-0.1981,-0.1845,-0.179,-0.1496,-0.1389,-0.1317,-0.145,-0.1433,-0.1451,-0.1474,-0.1452,-0.1422,-0.1184,-0.1187,-0.1189,-0.119,-0.1192,0,-0.1825,-0.182,-0.1817,-0.1793,-0.1755,-0.1821,-0.1819,-0.1748,-0.1665,-0.1666,-0.1604,-0.1403,-0.1248,-0.12,-0.0997,-0.096,-0.0986,-0.0947,-0.0997,-0.104,-0.1078,-0.104,-0.0661,-0.0659,-0.0658,-0.0657,0,0,-0.175,-0.1691,-0.1691,-0.1564,-0.1548,-0.1437,-0.1395,-0.133,-0.1293,-0.1184,-0.1118,-0.1178,-0.1165,-0.0931,-0.0856,-0.0727,-0.0885,-0.0685,-0.1105,-0.1206,-0.1244,-0.1341,-0.1326,0,0,0,0,0]},{"header":{"parameterUnit":"m.s-1","parameterCategory":2,"la1":30.2991,"la2":30.254,"lo1":-89.0895,"lo2":-89.0444,"dx":0.0017,"dy":0.0017,"nx":28,"ny":28,"refTime":"2022-12-07T03:00:00:Z","depth":"2","parameterNumber":3,"parameterNumberName":"V-component_of_CURRENTS"},"data":[0,0,0,0,0,0,0,0,0,0,0,0,0,0,0,0,0,0,0,0,0,0,0,0,0,0,0,0,0,0,0,0,0,0,0,0,0,0,0,0,0,0,0,0,0,0,0,0,0,0,0,0,0,0,0,0,0,0,-0.0492,-0.0491,0,-0.0387,-0.0386,-0.0385,-0.031,-0.031,-0.0309,-0.0309,-0.0165,-0.0161,-0.0158,0,0,0,0,0,0,0,0,0,0,0,0,0,-0.0551,-0.0551,-0.0493,-0.0491,-0.049,-0.0387,-0.0386,-0.0384,-0.0311,-0.031,-0.0309,-0.0309,-0.0166,-0.0162,-0.0158,0,0,0,0,0,0,0,0,0,0,0,0,0,-0.0494,-0.0551,-0.0493,-0.0441,-0.0435,-0.0388,-0.0386,-0.0384,-0.0311,-0.031,-0.0309,-0.0308,-0.0167,-0.0162,-0.0157,-0.0143,0,0,-0.0142,-0.014,0,0,0,0,0,0,0,0,-0.0497,-0.0492,-0.045,-0.0444,-0.0438,-0.0361,-0.0353,-0.0302,-0.0311,-0.0358,-0.0309,-0.0308,-0.0228,-0.0218,-0.02,-0.0137,-0.013,-0.0142,-0.0139,-0.0136,-0.0135,0,0,0,0,0,0,0,-0.0501,-0.0495,-0.0451,-0.0449,-0.0441,-0.0396,-0.0388,-0.0343,-0.0298,-0.0354,-0.0348,-0.0337,-0.0224,-0.0205,-0.0196,-0.0128,-0.0142,-0.0137,-0.0134,-0.0132,0.0061,0.0063,0,0,0,0,0,0,-0.052,-0.05,-0.0454,-0.0447,-0.0466,-0.0396,-0.0386,-0.0387,-0.0299,-0.0285,-0.0338,-0.0334,-0.0214,-0.0202,-0.019,-0.0133,-0.0137,-0.0132,-0.0129,0.0058,0.0061,0.0063,0,0,0,0,0,0,-0.0522,-0.0518,-0.0458,-0.047,-0.046,-0.0396,-0.0397,-0.0385,-0.0365,-0.0287,-0.0273,-0.033,-0.0213,-0.0197,-0.0137,-0.0128,-0.013,-0.0125,0.0056,0.0059,0.0062,-0.0041,0,0,0,0,0,0,-0.0524,-0.0519,-0.053,-0.0472,-0.046,-0.0437,-0.0397,-0.0383,-0.036,-0.0354,-0.0276,-0.0262,-0.0211,-0.0145,-0.0133,-0.0121,-0.0121,0.0053,0.0057,0.0061,-0.0041,-0.0042,-0.0043,0,0,0,0,0,-0.0527,-0.0545,-0.0532,-0.0526,-0.0476,-0.0438,-0.0428,-0.0379,-0.0361,-0.0357,-0.0292,-0.0264,-0.0109,-0.0141,-0.0126,-0.0113,0.0051,0.0056,0.0061,-0.004,-0.0042,-0.0043,0,0,0,0,0,0,-0.0576,-0.0537,-0.0522,-0.0527,-0.049,-0.0426,-0.042,-0.0388,-0.0336,-0.033,-0.0255,-0.0235,-0.0178,-0.0121,-0.0157,-0.0036,-0.0017,-0.0009,-0.0099,-0.01,-0.0101,-0.0117,-0.0117,0,0,0,0,0,-0.0595,-0.0599,-0.0549,-0.0555,-0.054,-0.0484,-0.0464,-0.0433,-0.0377,-0.0354,-0.0291,-0.0213,-0.0146,-0.0107,-0.0044,0.0009,0.0058,0.004,0.0038,0.0036,0.0039,0.0115,0.0119,0.0079,0.0079,0.0079,0,0,-0.0615,-0.0595,-0.0597,-0.0566,-0.0534,-0.0512,-0.047,-0.0449,-0.0421,-0.0347,-0.0291,-0.023,-0.0133,-0.007,-0.0036,-0.0023,0.0074,0.0042,0.0039,0.0044,0.012,0.0124,0.0126,0.0082,0.0082,0.0081,0,0,-0.065,-0.0642,-0.0651,-0.0624,-0.0585,-0.0546,-0.0544,-0.0481,-0.0446,-0.0392,-0.0321,-0.0254,-0.0153,-0.0079,-0.0029,0.0006,0.0055,0.0036,0.0018,0.009,0.0093,0.0096,0.0147,0.0155,0.0044,0.0044,0.0044,0,-0.0678,-0.0678,-0.0647,-0.0641,-0.0619,-0.0564,-0.0556,-0.0513,-0.0434,-0.0397,-0.0383,-0.0219,-0.0154,-0.0059,-0.004,-0.0003,0.0041,-0.0,0.0082,0.0086,0.0091,0.0143,0.0153,0.0039,0.004,0.004,0.0041,0,-0.0706,-0.0705,-0.0708,-0.068,-0.0655,-0.0643,-0.0579,-0.0546,-0.0499,-0.044,-0.0352,-0.0261,-0.0157,-0.0122,-0.0074,0.0007,0.0027,0.0054,0.0066,0.0087,0.0143,0.0155,0.0033,0.0035,0.0036,0.0037,0,0,-0.0767,-0.0735,-0.0736,-0.0727,-0.0675,-0.0657,-0.0614,-0.0548,-0.0515,-0.0435,-0.0376,-0.026,-0.021,-0.0147,-0.0076,-0.0009,0.005,0.0032,0.0038,0.0047,0.0197,0.0206,0.0221,0.0084,0.0086,0.0088,0.0215,0,-0.0796,-0.08,-0.0767,-0.0758,-0.075,-0.0689,-0.0651,-0.0586,-0.052,-0.045,-0.0347,-0.027,-0.0217,-0.0177,-0.0101,0.0015,0.0083,0.0013,0.0209,0.0214,0.019,0.0236,0.0201,0.0312,0.0227,0.023,0.0231,0,-0.0826,-0.0824,-0.0828,-0.0791,-0.0782,-0.0766,-0.0699,-0.0658,-0.0548,-0.0496,-0.0402,-0.0319,-0.0201,-0.0172,0.0026,-0.0023,0.0082,0.0165,0.0173,0.0228,0.0247,0.0288,0.0339,0.0253,0.0251,0.0249,0.0248,0,-0.0877,-0.0861,-0.0868,-0.0857,-0.0808,-0.0796,-0.0765,-0.0674,-0.0634,-0.0527,-0.0485,-0.0339,-0.0261,-0.0118,0.0057,0.0046,0.0265,0.0274,0.0382,0.0383,0.0418,0.0419,0.0415,0.0415,0.0415,0.0414,0.0414,0,-0.0913,-0.0916,-0.0898,-0.0903,-0.0907,-0.0852,-0.0834,-0.0779,-0.0696,-0.0638,-0.0518,-0.044,-0.0242,-0.009,0.0054,0.0258,0.027,0.039,0.0426,0.0382,0.0378,0.0383,0.0377,0.0419,0.0418,0.0417,0.0416,0,-0.0958,-0.0945,-0.0957,-0.0936,-0.0933,-0.0938,-0.0898,-0.0876,-0.0793,-0.0717,-0.0686,-0.0499,-0.0298,-0.0101,0.0147,0.0258,0.0442,0.0513,0.0435,0.046,0.0507,0.0495,0.064,0.0641,0.0643,0.0644,0.0645,0,-0.0976,-0.099,-0.1004,-0.1021,-0.1017,-0.1017,-0.1012,-0.0938,-0.0905,-0.0743,-0.0705,-0.0498,-0.0332,0.0015,0.0252,0.0502,0.0507,0.0598,0.0576,0.0514,0.0535,0.0521,0.0508,0.0581,0.0581,0.0582,0.0582,0,-0.1012,-0.1025,-0.104,-0.1088,-0.1103,-0.111,-0.1093,-0.1079,-0.0969,-0.089,-0.0733,-0.059,-0.0234,0.0051,0.0367,0.0499,0.0548,0.0611,0.0603,0.0517,0.0467,0.0484,0.0472,0.0584,0.0584,0.0584,0.0584,0.0584,-0.1038,-0.107,-0.1104,-0.1143,-0.1168,-0.1186,-0.1176,-0.1139,-0.1079,-0.0921,-0.0778,-0.0536,-0.0236,0.0215,0.0441,0.063,0.0626,0.0661,0.0658,0.0654,0.0613,0.0566,0.0694,0.0694,0.0695,0.0695,0.0695,0,-0.1062,-0.11,-0.1151,-0.1194,-0.1226,-0.1227,-0.1208,-0.1162,-0.1086,-0.0925,-0.076,-0.0423,-0.0103,0.0199,0.0517,0.0701,0.0678,0.0709,0.0654,0.065,0.0647,0.0603,0.0683,0.0684,0.0684,0.0685,0,0,-0.1074,-0.113,-0.1162,-0.1225,-0.1254,-0.1256,-0.1237,-0.1154,-0.1026,-0.0853,-0.0677,-0.0446,-0.0071,0.0151,0.0392,0.0556,0.0546,0.0553,0.0541,0.0444,0.0439,0.0596,0.0521,0,0,0,0,0]}],[{"header":{"parameterUnit":"m.s-1","parameterCategory":2,"la1":30.2991,"la2":30.254,"lo1":-89.0895,"lo2":-89.0444,"dx":0.0017,"dy":0.0017,"nx":28,"ny":28,"refTime":"2022-12-07T03:00:00:Z","depth":"4","parameterNumber":2,"parameterNumberName":"U-component_of_CURRENTS"},"data":[0,0,0,0,0,0,0,0,0,0,0,0,0,0,0,0,0,0,0,0,0,0,0,0,0,0,0,0,0,0,0,0,0,0,0,0,0,0,0,0,0,0,0,0,0,0,0,0,0,0,0,0,0,0,0,0,0,0,-0.1806,-0.1807,0,-0.1854,-0.1854,-0.1854,-0.187,-0.187,-0.1871,-0.1871,-0.1876,-0.1876,-0.1875,0,0,0,0,0,0,0,0,0,0,0,0,0,-0.1712,-0.1713,-0.1805,-0.1807,-0.1808,-0.1854,-0.1854,-0.1854,-0.187,-0.187,-0.1871,-0.1871,-0.1876,-0.1876,-0.1875,0,0,0,0,0,0,0,0,0,0,0,0,0,-0.1749,-0.1713,-0.1805,-0.1826,-0.1829,-0.1854,-0.1854,-0.1854,-0.187,-0.187,-0.1871,-0.1872,-0.1876,-0.1876,-0.1875,-0.1862,0,0,-0.1874,-0.1874,0,0,0,0,0,0,0,0,-0.1747,-0.1752,-0.1822,-0.1825,-0.1828,-0.1862,-0.1823,-0.1857,-0.187,-0.1848,-0.1871,-0.1872,-0.1871,-0.1871,-0.187,-0.1862,-0.1862,-0.1874,-0.1874,-0.1874,-0.1874,0,0,0,0,0,0,0,-0.1745,-0.175,-0.1818,-0.1823,-0.1827,-0.1828,-0.1834,-0.1829,-0.185,-0.185,-0.1853,-0.1868,-0.1871,-0.1871,-0.1871,-0.1862,-0.1874,-0.1874,-0.1874,-0.1874,-0.1961,-0.1963,0,0,0,0,0,0,-0.1752,-0.1748,-0.1817,-0.182,-0.1795,-0.183,-0.1836,-0.1845,-0.1851,-0.1855,-0.1867,-0.1868,-0.1871,-0.1871,-0.1871,-0.1911,-0.1874,-0.1874,-0.1873,-0.1958,-0.1961,-0.1964,0,0,0,0,0,0,-0.1749,-0.1757,-0.1815,-0.179,-0.1799,-0.1832,-0.1842,-0.1846,-0.1881,-0.1866,-0.1867,-0.1903,-0.1871,-0.1871,-0.1914,-0.191,-0.1873,-0.1873,-0.1955,-0.1959,-0.1963,-0.1956,0,0,0,0,0,0,-0.1746,-0.1756,-0.1778,-0.1791,-0.1801,-0.1846,-0.1842,-0.1847,-0.189,-0.1893,-0.1896,-0.1895,-0.1872,-0.1915,-0.1913,-0.1908,-0.1873,-0.1952,-0.1957,-0.1961,-0.1953,-0.1959,-0.1965,0,0,0,0,0,-0.1743,-0.1767,-0.1778,-0.1788,-0.1825,-0.1847,-0.1852,-0.1872,-0.1892,-0.1906,-0.193,-0.1897,-0.1943,-0.1917,-0.1914,-0.1909,-0.195,-0.1955,-0.1961,-0.1951,-0.1958,-0.1964,0,0,0,0,0,0,-0.1739,-0.1772,-0.1785,-0.1819,-0.1841,-0.1853,-0.1882,-0.1896,-0.1925,-0.1944,-0.1927,-0.1928,-0.1949,-0.1958,-0.1929,-0.1958,-0.1942,-0.1947,-0.1935,-0.1941,-0.1947,-0.1954,-0.1873,0,0,0,0,0,-0.175,-0.1778,-0.1802,-0.1833,-0.1851,-0.1874,-0.1895,-0.191,-0.1934,-0.1949,-0.1953,-0.197,-0.1965,-0.1981,-0.1975,-0.2004,-0.1991,-0.2006,-0.2012,-0.2016,-0.2028,-0.2031,-0.2036,-0.1982,-0.1982,-0.1982,0,0,-0.1762,-0.1783,-0.1802,-0.1835,-0.1859,-0.1883,-0.1887,-0.1931,-0.1952,-0.1944,-0.1987,-0.1979,-0.1978,-0.1991,-0.2004,-0.2004,-0.2022,-0.2023,-0.2026,-0.2035,-0.2037,-0.2042,-0.2046,-0.1986,-0.1986,-0.1985,0,0,-0.1786,-0.1818,-0.1845,-0.1866,-0.1911,-0.192,-0.1943,-0.1974,-0.1993,-0.2037,-0.2021,-0.2033,-0.2057,-0.2034,-0.2029,-0.2077,-0.2039,-0.2084,-0.2124,-0.2127,-0.213,-0.2133,-0.2094,-0.2093,-0.2101,-0.2101,-0.2101,0,-0.1799,-0.1831,-0.1857,-0.1884,-0.1909,-0.1941,-0.1971,-0.199,-0.2031,-0.2051,-0.2063,-0.2089,-0.2069,-0.207,-0.2079,-0.208,-0.2076,-0.2083,-0.2129,-0.2132,-0.2134,-0.2094,-0.2093,-0.2102,-0.2102,-0.2102,-0.2102,0,-0.1828,-0.1865,-0.1887,-0.1926,-0.1954,-0.1988,-0.2018,-0.2053,-0.2091,-0.2105,-0.2139,-0.2129,-0.2144,-0.2132,-0.2116,-0.2125,-0.211,-0.2114,-0.2096,-0.2138,-0.2094,-0.2093,-0.2102,-0.2102,-0.2102,-0.2102,0,0,-0.1811,-0.1892,-0.1899,-0.1924,-0.1981,-0.1998,-0.205,-0.2088,-0.212,-0.2165,-0.2196,-0.2188,-0.2193,-0.2192,-0.2166,-0.2174,-0.2155,-0.2165,-0.2164,-0.2097,-0.2142,-0.1983,-0.1966,-0.2174,-0.2175,-0.2176,-0.2089,0,-0.1822,-0.1873,-0.1915,-0.1965,-0.199,-0.2041,-0.2076,-0.212,-0.216,-0.2195,-0.2209,-0.2221,-0.2212,-0.2212,-0.222,-0.2167,-0.2161,-0.2176,-0.2137,-0.2135,-0.1966,-0.1963,-0.2178,-0.2089,-0.2088,-0.2088,-0.2088,0,-0.1814,-0.1853,-0.1905,-0.1976,-0.1994,-0.2031,-0.2094,-0.213,-0.2188,-0.2222,-0.2265,-0.2271,-0.227,-0.2264,-0.2228,-0.2246,-0.2201,-0.2169,-0.2165,-0.2023,-0.1976,-0.2051,-0.2086,-0.2086,-0.2087,-0.2087,-0.2087,0,-0.1748,-0.1835,-0.1876,-0.1899,-0.1986,-0.2027,-0.2075,-0.214,-0.2167,-0.2234,-0.2256,-0.2289,-0.2273,-0.2273,-0.2201,-0.2226,-0.215,-0.2169,-0.1984,-0.1971,-0.2141,-0.2139,-0.215,-0.215,-0.215,-0.2151,-0.2151,0,-0.1703,-0.1739,-0.1854,-0.1869,-0.192,-0.1996,-0.2047,-0.2103,-0.2169,-0.2172,-0.2257,-0.2238,-0.228,-0.2239,-0.2208,-0.2067,-0.2151,-0.1977,-0.1941,-0.2138,-0.2138,-0.2137,-0.2137,-0.2147,-0.2148,-0.2149,-0.2149,0,-0.1606,-0.1685,-0.1737,-0.185,-0.1885,-0.1918,-0.202,-0.2046,-0.2125,-0.213,-0.2148,-0.2188,-0.2122,-0.2127,-0.2074,-0.2018,-0.1938,-0.1867,-0.204,-0.2017,-0.176,-0.1761,-0.1667,-0.166,-0.1655,-0.165,-0.1647,0,-0.1554,-0.1575,-0.1702,-0.1734,-0.1789,-0.1858,-0.1898,-0.2004,-0.2018,-0.2059,-0.2033,-0.2009,-0.2009,-0.1803,-0.1843,-0.1765,-0.1748,-0.171,-0.1777,-0.1736,-0.1712,-0.1722,-0.173,-0.1638,-0.1637,-0.1636,-0.1634,0,-0.1455,-0.1519,-0.1565,-0.1629,-0.1685,-0.173,-0.1791,-0.1781,-0.1863,-0.1958,-0.185,-0.1802,-0.1708,-0.1668,-0.1602,-0.1562,-0.1751,-0.1655,-0.1667,-0.173,-0.1701,-0.1684,-0.1699,-0.1616,-0.1618,-0.162,-0.1621,0,-0.1384,-0.1396,-0.1464,-0.15,-0.1567,-0.1559,-0.1618,-0.1612,-0.1632,-0.1692,-0.1636,-0.1619,-0.1655,-0.1555,-0.15,-0.1441,-0.144,-0.1429,-0.1453,-0.1474,-0.1454,-0.1393,-0.1165,0,0,0,0,0,-0.1301,-0.1295,-0.1327,-0.135,-0.1406,-0.1432,-0.1519,-0.1579,-0.1655,-0.153,-0.1578,-0.1484,-0.1387,-0.1393,-0.1289,-0.1424,-0.1455,-0.1302,-0.146,-0.1513,-0.1535,-0.1532,0,0,0,0,0,0,-0.1244,-0.1271,-0.1276,-0.1203,-0.1186,-0.1218,-0.1265,-0.1328,-0.1273,-0.136,-0.131,-0.1389,-0.1316,-0.1391,-0.1246,-0.125,-0.1321,-0.1316,-0.1312,-0.1501,-0.1521,-0.1538,-0.1542,0,0,0,0,0]},{"header":{"parameterUnit":"m.s-1","parameterCategory":2,"la1":30.2991,"la2":30.254,"lo1":-89.0895,"lo2":-89.0444,"dx":0.0017,"dy":0.0017,"nx":28,"ny":28,"refTime":"2022-12-07T03:00:00:Z","depth":"4","parameterNumber":3,"parameterNumberName":"V-component_of_CURRENTS"},"data":[0,0,0,0,0,0,0,0,0,0,0,0,0,0,0,0,0,0,0,0,0,0,0,0,0,0,0,0,0,0,0,0,0,0,0,0,0,0,0,0,0,0,0,0,0,0,0,0,0,0,0,0,0,0,0,0,0,0,-0.0427,-0.0427,0,-0.041,-0.041,-0.041,-0.0399,-0.0399,-0.0399,-0.0399,-0.0361,-0.036,-0.0359,0,0,0,0,0,0,0,0,0,0,0,0,0,-0.0422,-0.0423,-0.0427,-0.0427,-0.0427,-0.041,-0.041,-0.041,-0.0399,-0.0399,-0.0399,-0.0399,-0.0361,-0.036,-0.0359,0,0,0,0,0,0,0,0,0,0,0,0,0,-0.0418,-0.0423,-0.0427,-0.0418,-0.0417,-0.041,-0.041,-0.041,-0.0399,-0.0399,-0.0399,-0.0398,-0.0361,-0.036,-0.0359,-0.0356,0,0,-0.0355,-0.0354,0,0,0,0,0,0,0,0,-0.0418,-0.0418,-0.042,-0.0419,-0.0418,-0.0406,-0.0395,-0.0391,-0.0399,-0.0407,-0.0399,-0.0398,-0.0373,-0.0371,-0.037,-0.0354,-0.0353,-0.0355,-0.0354,-0.0353,-0.0353,0,0,0,0,0,0,0,-0.0419,-0.0419,-0.0422,-0.042,-0.0418,-0.0406,-0.0405,-0.0394,-0.0392,-0.0407,-0.0405,-0.0402,-0.0373,-0.0372,-0.0369,-0.0352,-0.0355,-0.0354,-0.0353,-0.0352,-0.0312,-0.0312,0,0,0,0,0,0,-0.042,-0.042,-0.0422,-0.0421,-0.0416,-0.0406,-0.0405,-0.0411,-0.0393,-0.039,-0.0402,-0.0401,-0.0374,-0.0371,-0.0368,-0.0338,-0.0354,-0.0352,-0.0352,-0.0313,-0.0312,-0.0312,0,0,0,0,0,0,-0.0421,-0.0421,-0.0423,-0.0418,-0.0417,-0.0406,-0.0412,-0.041,-0.0414,-0.039,-0.0386,-0.0408,-0.0374,-0.037,-0.0356,-0.0338,-0.0352,-0.0351,-0.0313,-0.0312,-0.0312,-0.0295,0,0,0,0,0,0,-0.0421,-0.0422,-0.0435,-0.0419,-0.0418,-0.0422,-0.0412,-0.041,-0.0411,-0.041,-0.0393,-0.0389,-0.0373,-0.0358,-0.0355,-0.0336,-0.035,-0.0313,-0.0313,-0.0312,-0.0296,-0.0294,-0.0293,0,0,0,0,0,-0.0421,-0.0438,-0.0436,-0.0436,-0.0434,-0.0422,-0.0421,-0.0412,-0.0412,-0.0415,-0.0399,-0.039,-0.0352,-0.0357,-0.0353,-0.0334,-0.0314,-0.0313,-0.0312,-0.0297,-0.0295,-0.0293,0,0,0,0,0,0,-0.0447,-0.0438,-0.0435,-0.0451,-0.0438,-0.042,-0.0427,-0.0418,-0.041,-0.0414,-0.039,-0.0384,-0.037,-0.0357,-0.0364,-0.0321,-0.033,-0.0328,-0.032,-0.0317,-0.0316,-0.0296,-0.0349,0,0,0,0,0,-0.0458,-0.047,-0.0451,-0.0466,-0.0461,-0.0446,-0.0444,-0.0437,-0.0423,-0.042,-0.0402,-0.0384,-0.0363,-0.0346,-0.0337,-0.0311,-0.0283,-0.0296,-0.0294,-0.0293,-0.0275,-0.0206,-0.0196,-0.031,-0.031,-0.031,0,0,-0.0474,-0.047,-0.0478,-0.0472,-0.0465,-0.0456,-0.0445,-0.0446,-0.0431,-0.0417,-0.04,-0.0388,-0.0361,-0.0334,-0.0324,-0.0318,-0.0252,-0.0292,-0.0291,-0.0273,-0.0204,-0.0193,-0.0183,-0.0309,-0.0309,-0.0309,0,0,-0.0498,-0.0505,-0.0516,-0.0505,-0.0495,-0.0479,-0.048,-0.0461,-0.0447,-0.0431,-0.0412,-0.0374,-0.0362,-0.0313,-0.0292,-0.0272,-0.0257,-0.0288,-0.0244,-0.0179,-0.0168,-0.0158,-0.0133,-0.0121,-0.0271,-0.0271,-0.0271,0,-0.0518,-0.0526,-0.0517,-0.0516,-0.0508,-0.0488,-0.0485,-0.0465,-0.0442,-0.0419,-0.0427,-0.0365,-0.0338,-0.0271,-0.0258,-0.0262,-0.0248,-0.0254,-0.0173,-0.0163,-0.0153,-0.0129,-0.0116,-0.027,-0.027,-0.027,-0.027,0,-0.0537,-0.0545,-0.0551,-0.0539,-0.0528,-0.0528,-0.0491,-0.0476,-0.0459,-0.0425,-0.0376,-0.0333,-0.0285,-0.027,-0.0254,-0.0171,-0.0194,-0.0191,-0.0175,-0.014,-0.0119,-0.0105,-0.0269,-0.0269,-0.0269,-0.027,0,0,-0.0578,-0.0567,-0.0571,-0.0568,-0.0541,-0.0535,-0.0503,-0.0458,-0.0436,-0.0391,-0.0347,-0.0273,-0.0245,-0.0217,-0.0187,-0.0111,-0.0029,-0.012,-0.0117,-0.0088,0.0082,0.0037,0.0047,-0.0019,-0.0016,-0.0013,0.0061,0,-0.0596,-0.0606,-0.0587,-0.0587,-0.0584,-0.0548,-0.052,-0.0474,-0.0435,-0.0389,-0.0303,-0.0266,-0.0226,-0.0212,-0.0122,-0.007,0.0011,-0.0051,0.0039,0.0042,0.0005,0.0064,-0.0004,0.0071,0.0074,0.0076,0.0078,0,-0.0615,-0.0619,-0.0628,-0.0608,-0.0603,-0.0598,-0.0552,-0.0523,-0.0438,-0.0406,-0.0326,-0.028,-0.0165,-0.0149,0.0014,-0.0038,0.0035,0.0089,0.0093,0.0062,0.0024,0.0035,0.0102,0.01,0.0098,0.0097,0.0095,0,-0.0645,-0.0643,-0.0655,-0.0651,-0.0623,-0.0619,-0.0601,-0.0533,-0.0507,-0.0422,-0.04,-0.0266,-0.022,-0.0091,0.0023,0.0018,0.0181,0.0186,0.0224,0.0219,0.0228,0.0217,0.033,0.033,0.0329,0.0329,0.0329,0,-0.0662,-0.0673,-0.068,-0.0688,-0.0699,-0.0663,-0.0657,-0.0617,-0.0558,-0.0521,-0.0419,-0.0368,-0.0201,-0.0095,0.0021,0.015,0.0186,0.025,0.0253,0.0226,0.0215,0.0236,0.0224,0.0332,0.0331,0.0331,0.033,0,-0.0684,-0.0689,-0.071,-0.0712,-0.0718,-0.0729,-0.0717,-0.0704,-0.0647,-0.0601,-0.0579,-0.044,-0.0299,-0.0146,0.0048,0.0127,0.0262,0.0304,0.0238,0.0231,0.0255,0.0243,0.0364,0.0363,0.0363,0.0362,0.0362,0,-0.0689,-0.0706,-0.0747,-0.0773,-0.0783,-0.0798,-0.0805,-0.0759,-0.074,-0.064,-0.0618,-0.0481,-0.0374,-0.0142,0.002,0.0227,0.0263,0.0313,0.0334,0.0277,0.0268,0.0256,0.0245,0.0361,0.0361,0.0361,0.0361,0,-0.07,-0.0731,-0.0754,-0.0818,-0.0851,-0.0872,-0.0878,-0.0868,-0.08,-0.0755,-0.0635,-0.0493,-0.0339,-0.0146,0.0002,0.0158,0.0269,0.0309,0.0312,0.0332,0.0275,0.0264,0.0254,0.0359,0.036,0.036,0.036,0,-0.0715,-0.0747,-0.0798,-0.0844,-0.0897,-0.0925,-0.0922,-0.0883,-0.0851,-0.0731,-0.0695,-0.0507,-0.0392,-0.0182,-0.004,0.0097,0.0148,0.0188,0.0199,0.0202,0.0133,0.0035,0.007,0,0,0,0,0,-0.0719,-0.0759,-0.0814,-0.0867,-0.0924,-0.0947,-0.0956,-0.0938,-0.0878,-0.08,-0.0739,-0.0586,-0.0346,-0.0238,-0.0103,-0.0054,0.0155,0.0105,0.0201,0.035,0.0352,0.0295,0,0,0,0,0,0,-0.0724,-0.0783,-0.0814,-0.088,-0.0916,-0.0965,-0.0971,-0.0932,-0.0874,-0.0797,-0.0666,-0.0572,-0.034,-0.0421,-0.0105,-0.0062,0.0012,0.0227,0.0229,0.0349,0.0351,0.0352,0.0294,0,0,0,0,0]}]]